Weather Roundup
Issued by NWS

Home | Current Version | Previous Version | Text Only | Print | Product List | Glossary On
Versions: 1 2 3 4 5 6 7 8 9 10 11 12 13 14 15 16 17 18 19 20 21 22 23 24 25 26 27 28 29 30 31 32 33 34 35 36 37 38 39 40 41 42 43 44 45 46 47 48 49 50
000
NZUS93 KARX 020610
HRRWXR

CURRENT HOURLY OBSERVATIONS ACROSS
MUCH OF THE UPPER MISSISSIPPI VALLEY
NATIONAL WEATHER SERVICE LA CROSSE WI
100 AM CDT SAT AUG 02 2014


...SOUTHEAST MINNESOTA...


CITY           SKY/WX    TMP DP  RH WIND       PRES   REMARKS
ROCHESTER      CLEAR     62  59  90 S6        30.13R
ROCHESTER/MAYO FAIR      65  60  82 CALM      30.13R
WINONA         CLEAR     66  64  94 CALM      30.11R
AUSTIN         CLEAR     61  59  94 CALM      30.13R
ALBERT LEA       N/A     63  63 100 CALM      30.13R FOG
DODGE CENTER   CLEAR     63  57  82 SW5       30.13R
PRESTON        CLEAR     62  62  99 S6        30.14R
OWATONNA       CLEAR     63  57  82 CALM      30.12R
FARIBAULT      CLEAR     63  55  77 CALM      30.11R
$$

...ELSEWHERE IN MINNESOTA...


CITY           SKY/WX    TMP DP  RH WIND       PRES   REMARKS
MINNEAPOLIS    CLEAR     70  62  76 SE5       30.09R
INTNL FALLS    CLEAR     48  47  96 CALM      30.10R
DULUTH         CLEAR     56  50  80 E3        30.11R
RED WING       PTCLDY    64  63  94 E3        30.09R
REDWOOD FALLS  PTCLDY    68  61  78 SW6       30.10R
MANKATO        CLEAR     68  57  68 SW3       30.11R
WORTHINGTON    CLEAR     64  57  77 S5        30.15S
FAIRMONT       CLEAR     63  54  72 S3        30.12S
$$

...SOUTHWEST WISCONSIN...


CITY           SKY/WX    TMP DP  RH WIND       PRES   REMARKS
LA CROSSE      CLEAR     66  58  75 SE5       30.10R
PRAIRIE DU CHI CLEAR     64  53  68 CALM      30.10F
BOSCOBEL       CLEAR     58  54  86 CALM      30.12R
LONE ROCK      PTCLDY    63  56  78 CALM      30.12S
PLATTEVILLE    PTCLDY    63  58  85 S6        30.12S
FORT MC COY    CLEAR     57  55  94 CALM      30.12S
CAMP DOUGLAS   FOG       54  54 100 E3        30.10F VSB 1/2
VIROQUA        FAIR      63  53  71 S5        30.13S
WIS DELLS      CLEAR     58  55  87 S3        30.12F
$$

...ELSEWHERE IN WISCONSIN...


CITY           SKY/WX    TMP DP  RH WIND       PRES   REMARKS
MILWAUKEE      PTCLDY    60  55  83 SE7       30.09R
MADISON        CLEAR     62  57  83 CALM      30.11F
GREEN BAY      CLEAR     61  58  90 SW5       30.10R
EAU CLAIRE     CLEAR     65  62  90 CALM      30.10R
BLACK RVR FLS  FOG       56  56 100 CALM      30.11S VSB 3/4
MEDFORD        CLEAR     55  55  99 CALM      30.13S FOG
WAUSAU         CLEAR     59  58  96 CALM      30.10F FOG
WIS RAPIDS     CLEAR     57  56  96 CALM      30.13S
MARSHFIELD     FOG       59  57  93 CALM      30.12R VSB 1/2
RICE LAKE      CLEAR     60  59  95 CALM      30.12S FOG
$$

...NORTHEAST IOWA...


CITY           SKY/WX    TMP DP  RH WIND       PRES   REMARKS
WATERLOO       CLEAR     62  59  90 CALM      30.10S
DUBUQUE        CLEAR     62  59  90 S6        30.12S
DECORAH        PTCLDY    64  59  82 S6        30.12S
MASON CITY     CLEAR     59  58  96 CALM      30.14R
CHARLES CITY   CLEAR     61  59  94 CALM      30.13S
OELWEIN        CLEAR     63  61  94 SE8       30.13R
$$

...ELSEWHERE IN IOWA...


CITY           SKY/WX    TMP DP  RH WIND       PRES   REMARKS
DES MOINES     CLEAR     70  60  70 CALM      30.12R
IOWA CITY      CLEAR     66  62  87 CALM      30.11F
FORT DODGE     PTCLDY    63  61  94 CALM      30.14R
MARSHALLTOWN   CLEAR     64  63  96 CALM      30.11S
CEDAR RAPIDS   CLEAR     63  63 100 S5        30.10S
$$

...NORTHERN ILLINOIS...


CITY           SKY/WX    TMP DP  RH WIND       PRES   REMARKS
CHICAGO-OHARE  PTCLDY    64  53  67 SE6       30.08S
DUPAGE         MOCLDY    62  56  80 NW6       30.09R
CHICAGO-MIDWAY MOCLDY    70  57  63 S7        30.07F
MOLINE         CLEAR     63  60  90 CALM      30.10F
ROCKFORD       MOCLDY    61  57  87 CALM      30.10F
STERLING       CLOUDY    63  59  88 W3        30.10F
PEORIA         MOCLDY    66  61  84 CALM      30.11F
$$

NOTE: "FAIR" INDICATES FEW OR NO CLOUDS BELOW 12,000 FEET WITH NO
SIGNIFICANT WEATHER AND/OR OBSTRUCTIONS TO VISIBILITY. WIND
SPEEDS ARE IN MILES-PER-HOUR.



USA.gov is the U.S. government's official web portal to all federal, state and local government web resources and services.